This is the latest recevied weather packets stored in our database for station/object KB1FFS. If no packets are shown the sender has not sent any weather packets the latest 10 day(s).
| Time | Temp. | Humidity | Pressure | Rain* | Wind** | Luminosity | Snow |
|---|---|---|---|---|---|---|---|
| 1787614331 | 43.33° C | 19% | 1011.7 hPa | 0 mm | - | 157 W/m² | - |
| 1787614028 | 43.33° C | 19% | 1011.9 hPa | 0 mm | - | 173 W/m² | - |
| 1787613724 | 43.33° C | 19% | 1011.9 hPa | 0 mm | - | 187 W/m² | - |
| 1787613423 | 43.33° C | 19% | 1011.7 hPa | 0 mm | - | 202 W/m² | - |
| 1787613119 | 43.33° C | 19% | 1011.7 hPa | 0 mm | - | 215 W/m² | - |
| 1787612816 | 43.33° C | 19% | 1011.6 hPa | 0 mm | - | 233 W/m² | - |
| 1787612512 | 43.89° C | 19% | 1011.8 hPa | 0 mm | - | 249 W/m² | - |
| 1787612208 | 43.89° C | 19% | 1011.9 hPa | 0 mm | - | 264 W/m² | - |
| 1787611903 | 43.89° C | 20% | 1011.8 hPa | 0 mm | - | 279 W/m² | - |
| 1787611600 | 43.89° C | 20% | 1011.8 hPa | 0 mm | - | 298 W/m² | - |
| 1787611296 | 43.89° C | 20% | 1011.9 hPa | 0 mm | - | 313 W/m² | - |
| 1787610991 | 43.89° C | 19% | 1011.9 hPa | 0 mm | - | 330 W/m² | - |
| 1787610687 | 43.89° C | 20% | 1011.8 hPa | 0 mm | - | 341 W/m² | - |
| 1787610387 | 44.44° C | 19% | 1012.1 hPa | 0 mm | - | 380 W/m² | - |
| 1787610086 | 44.44° C | 19% | 1011.9 hPa | 0 mm | - | 380 W/m² | - |
| 1787609780 | 44.44° C | 19% | 1012 hPa | 0 mm | - | 390 W/m² | - |
| 1787609475 | 44.44° C | 19% | 1011.9 hPa | 0 mm | - | 419 W/m² | - |
| 1787609175 | 43.89° C | 20% | 1012 hPa | 0 mm | - | 464 W/m² | - |
| 1787608869 | 43.89° C | 20% | 1011.9 hPa | 0 mm | - | 464 W/m² | - |
| 1787608569 | 43.89° C | 20% | 1011.9 hPa | 0 mm | - | 467 W/m² | - |
| 1787608265 | 43.89° C | 20% | 1012 hPa | 0 mm | - | 481 W/m² | - |
| 1787607962 | 43.89° C | 20% | 1012 hPa | 0 mm | - | 499 W/m² | - |
| 1787607658 | 43.89° C | 21% | 1012 hPa | 0 mm | - | 515 W/m² | - |
| 1787607354 | 43.89° C | 20% | 1012.2 hPa | 0 mm | - | 529 W/m² | - |
| 1787607051 | 43.89° C | 21% | 1012.3 hPa | 0 mm | - | 548 W/m² | - |
* Rain latest hour (hover to see other rain measurements)
** Current wind speed in m/s (hover to see current wind gust speed)